Weather History for KZZV - March, 2012

Change the Weather History Date:

Thursday, March 29, 2012

  Actual Average Record
Temperature  
Mean Temperature 49 °F 45 °F  
Max Temperature 59 °F 57 °F 82 °F (1998)
Min Temperature 38 °F 34 °F 13 °F (2015)
Degree Days  
Heating Degree Days 16 20  
Month to date heating degree days 378 713  
Since 1 July heating degree days 4072 4904  
Cooling Degree Days 0 0  
Month to date cooling degree days 18 0  
Year to date cooling degree days 18 0  
Moisture  
Dew Point 35 °F    
Average Humidity 60    
Maximum Humidity 76    
Minimum Humidity 43    
Precipitation  
Precipitation 0.00 in 0.11 in 0.79 in (1974)
Month to date precipitation 2.50 2.77  
Year to date precipitation 6.64 7.60  
Sea Level Pressure  
Sea Level Pressure 30.02 in    
Wind  
Wind Speed 7 mph (North)    
Max Wind Speed 13 mph    
Max Gust Speed 23 mph    
Visibility 10 miles    
Events      
T = Trace of Precipitation, MM = Missing Value Source: NWS Daily Summary

Daily Weather History Graph

Daily Weather History Graph

Search for Another Location

Airport or City:

Trip Planner

Search our weather history database for the weather conditions in past years. The results will help you decide how hot, cold, wet, or windy it might be!

Date:

Astronomy

Mar. 29, 2012 Rise Set
Actual Time 7:15 AM EDT 7:49 PM EDT
Civil Twilight 6:48 AM EDT 8:16 PM EDT
Nautical Twilight 6:16 AM EDT 8:48 PM EDT
Astronomical Twilight 5:43 AM EDT 9:21 PM EDT
Moon 11:23 AM EDT (3/29) 1:39 AM EDT (3/29)
Length of Visible Light 13h 28m
Length of Day
12h 33m
Waxing Crescent, 39% of the Moon is Illuminated
Mar 29
Waxing Crescent
Mar 30
First Quarter
Apr 6
Full
Apr 13
Last Quarter
Apr 21
New

Hourly Weather History & Observations

Time (EDT) Temp. Windchill Dew Point Humidity Pressure Visibility Wind Dir Wind Speed Gust Speed Precip Events Conditions
12:53 AM 53.1 °F - 39.9 °F 61% 29.92 in 10.0 mi North 8.1 mph - N/A   Clear
1:53 AM 48.9 °F - 39.0 °F 69% 29.93 in 10.0 mi NNW 5.8 mph - N/A   Clear
2:53 AM 48.0 °F - 37.9 °F 68% 29.93 in 10.0 mi NW 8.1 mph - N/A   Clear
3:53 AM 46.0 °F 43.1 °F 37.0 °F 71% 29.94 in 10.0 mi WNW 5.8 mph - N/A   Clear
4:53 AM 45.0 °F 41.8 °F 36.0 °F 71% 29.94 in 10.0 mi WNW 5.8 mph - N/A   Clear
5:53 AM 43.0 °F 41.3 °F 36.0 °F 76% 29.96 in 10.0 mi NW 3.5 mph - N/A   Clear
6:53 AM 42.1 °F 39.2 °F 35.1 °F 76% 29.99 in 10.0 mi North 4.6 mph - N/A   Clear
7:53 AM 41.0 °F 39.0 °F 34.0 °F 76% 30.03 in 10.0 mi NNW 3.5 mph - N/A   Clear
8:53 AM 45.0 °F 43.5 °F 34.0 °F 65% 30.05 in 10.0 mi North 3.5 mph - N/A   Clear
9:53 AM 46.9 °F - 33.1 °F 59% 30.06 in 10.0 mi NNW 11.5 mph 16.1 mph N/A   Clear
10:53 AM 48.0 °F - 34.0 °F 58% 30.07 in 10.0 mi NW 5.8 mph - N/A   Mostly Cloudy
11:53 AM 51.1 °F - 34.0 °F 52% 30.08 in 10.0 mi Variable 6.9 mph - N/A   Partly Cloudy
12:53 PM 52.0 °F - 35.1 °F 53% 30.07 in 10.0 mi Variable 4.6 mph - N/A   Partly Cloudy
1:53 PM 54.0 °F - 36.0 °F 51% 30.06 in 10.0 mi WNW 6.9 mph - N/A   Clear
2:53 PM 55.9 °F - 37.0 °F 49% 30.04 in 10.0 mi North 5.8 mph - N/A   Clear
3:53 PM 57.0 °F - 36.0 °F 45% 30.02 in 10.0 mi NW 10.4 mph - N/A   Clear
4:53 PM 57.9 °F - 36.0 °F 44% 30.01 in 10.0 mi ENE 8.1 mph - N/A   Clear
5:53 PM 57.0 °F - 36.0 °F 45% 30.01 in 10.0 mi NNE 6.9 mph - N/A   Clear
6:53 PM 53.1 °F - 36.0 °F 52% 30.03 in 10.0 mi NE 10.4 mph - N/A   Clear
7:53 PM 48.9 °F - 35.1 °F 59% 30.05 in 10.0 mi NNE 6.9 mph - N/A   Clear
8:53 PM 45.0 °F 39.7 °F 34.0 °F 65% 30.06 in 10.0 mi North 10.4 mph - N/A   Clear
9:53 PM 43.0 °F 37.7 °F 33.1 °F 68% 30.09 in 10.0 mi North 9.2 mph - N/A   Clear
10:53 PM 41.0 °F 36.4 °F 32.0 °F 70% 30.10 in 10.0 mi NNE 6.9 mph - N/A   Clear
11:53 PM 39.0 °F 34.8 °F 30.9 °F 73% 30.09 in 10.0 mi NNE 5.8 mph - N/A   Clear